{"data":{"norad_id":40348,"epoch":"2026-09-19T16:58:56.919072Z","epoch_age_seconds":82741,"freshness":"FRESH","line1":"1 40348U 14083A   26262.70760323 -.00000027  00000+0  00000+0 0  9999","line2":"2 40348   0.0491 344.5423 0002672 193.2526 182.2085  5.00115808214613","mean_motion":5.00115808,"eccentricity":0.0002672,"inclination_deg":0.0491,"raan_deg":344.5423,"arg_perigee_deg":193.2526,"mean_anomaly_deg":182.2085,"bstar":0,"rev_number":21461,"period_min":287.93331003846,"perigee_km":8062.0248454924,"apogee_km":8069.7437304687,"semimajor_km":14444.021287981,"source":"CELESTRAK","updated_at":"2026-09-20T09:00:35.683321Z"}}